Eagle River, WI

10:30 AM CDT on October 01, 2016 (GMT -0500)
Eagle River Union

Weather History for KEGV - May, 2013

Change the Weather History Date:

Monday, May 13, 2013

  Actual Average Record
Temperature  
Mean Temperature 38 °F -  
Max Temperature 55 °F 65 °F 84 °F (1991)
Min Temperature 21 °F 40 °F 21 °F (2013)
Degree Days  
Heating Degree Days 27    
Moisture  
Dew Point 21 °F    
Average Humidity 52    
Maximum Humidity 100    
Minimum Humidity 18    
Precipitation  
Precipitation 0.00 in - - ()
Sea Level Pressure  
Sea Level Pressure 30.01 in    
Wind  
Wind Speed 3 mph (SSW)    
Max Wind Speed 14 mph    
Max Gust Speed 17 mph    
Visibility 10 miles    
Events Rain    
Averages and records for this station are not official NWS values.
T = Trace of Precipitation, MM = Missing Value Source: NWS Daily Summary

Daily Weather History Graph

Daily Weather History Graph

Search for Another Location

Airport or City:

Trip Planner

Search our weather history database for the weather conditions in past years. The results will help you decide how hot, cold, wet, or windy it might be!

Date:

Astronomy

May. 13, 2013 Rise Set
Actual Time 5:27 AM CDT 8:20 PM CDT
Civil Twilight 4:52 AM CDT 8:55 PM CDT
Nautical Twilight 4:08 AM CDT 9:39 PM CDT
Astronomical Twilight 3:15 AM CDT 10:32 PM CDT
Moon 8:11 AM CDT (5/13) 11:29 PM CDT (5/13)
Length of Visible Light 16h 02m
Length of Day
14h 53m
Waxing Crescent, 12% of the Moon is Illuminated
May 13
Waxing Crescent
May 17
First Quarter
May 24
Full
May 31
Last Quarter
Jun 8
New

Hourly Weather History & Observations

Time (CDT) Temp. Windchill Dew Point Humidity Pressure Visibility Wind Dir Wind Speed Gust Speed Precip Events Conditions
12:15 AM 26.6 °F - 19.4 °F 74% 30.10 in 10.0 mi Calm Calm - N/A   Clear
12:35 AM 26.6 °F - 21.2 °F 80% 30.10 in 10.0 mi Calm Calm - N/A   Clear
12:55 AM 24.8 °F 20.5 °F 21.2 °F 86% 30.10 in 10.0 mi WSW 3.5 mph - N/A   Clear
1:15 AM 26.6 °F - 21.2 °F 80% 30.10 in 10.0 mi Calm Calm - N/A   Clear
1:35 AM 26.6 °F - 21.2 °F 80% 30.10 in 10.0 mi Calm Calm - N/A   Clear
1:55 AM 24.8 °F - 21.2 °F 86% 30.10 in 10.0 mi Calm Calm - N/A   Clear
2:15 AM 23.0 °F - 23.0 °F 100% 30.09 in 10.0 mi Calm Calm - N/A   Clear
2:35 AM 23.0 °F - 23.0 °F 100% 30.09 in 10.0 mi Calm Calm - N/A   Clear
2:55 AM 23.0 °F - 23.0 °F 100% 30.08 in 10.0 mi Calm Calm - N/A   Clear
3:15 AM 23.0 °F - 23.0 °F 100% 30.09 in 10.0 mi Calm Calm - N/A   Clear
3:35 AM 23.0 °F - 23.0 °F 100% 30.08 in 10.0 mi Calm Calm - N/A   Clear
3:55 AM 23.0 °F - 21.2 °F 93% 30.08 in 10.0 mi Calm Calm - N/A   Clear
4:15 AM 21.2 °F - 21.2 °F 100% 30.08 in 10.0 mi Calm Calm - N/A   Clear
4:35 AM 23.0 °F - 23.0 °F 100% 30.08 in 10.0 mi Calm Calm - N/A   Clear
4:55 AM 23.0 °F - 23.0 °F 100% 30.09 in 10.0 mi Calm Calm - N/A   Clear
5:15 AM 23.0 °F - 23.0 °F 100% 30.10 in 10.0 mi Calm Calm - N/A   Clear
5:35 AM 23.0 °F - 23.0 °F 100% 30.10 in 10.0 mi Calm Calm - N/A   Clear
5:55 AM 23.0 °F - 23.0 °F 100% 30.09 in 10.0 mi Calm Calm - N/A   Clear
6:15 AM 23.0 °F - 23.0 °F 100% 30.10 in 10.0 mi Calm Calm - N/A   Clear
6:35 AM 26.6 °F - 26.6 °F 100% 30.10 in 10.0 mi Calm Calm - N/A   Clear
6:55 AM 30.2 °F - 24.8 °F 80% 30.11 in 10.0 mi Calm Calm - N/A   Clear
7:15 AM 32.0 °F 27.5 °F 23.0 °F 69% 30.11 in 10.0 mi WSW 4.6 mph - N/A   Clear
7:35 AM 35.6 °F 30.7 °F 21.2 °F 56% 30.11 in 10.0 mi WSW 5.8 mph - N/A   Clear
7:55 AM 37.4 °F 31.4 °F 19.4 °F 48% 30.12 in 10.0 mi West 8.1 mph - N/A   Clear
8:15 AM 37.4 °F 31.4 °F 19.4 °F 48% 30.12 in 10.0 mi SW 8.1 mph - N/A   Clear
8:35 AM 41.0 °F 35.8 °F 19.4 °F 42% 30.12 in 10.0 mi SW 8.1 mph - N/A   Clear
8:55 AM 42.8 °F 38.0 °F 17.6 °F 36% 30.12 in 10.0 mi SW 8.1 mph - N/A   Clear
9:15 AM 42.8 °F 40.1 °F 14.0 °F 31% 30.12 in 10.0 mi NW 4.6 mph - N/A   Clear
9:35 AM 42.8 °F 40.1 °F 14.0 °F 31% 30.11 in 10.0 mi WSW 4.6 mph - N/A   Clear
9:55 AM 44.6 °F 41.4 °F 14.0 °F 29% 30.11 in 10.0 mi NW 5.8 mph - N/A   Clear
10:15 AM 44.6 °F 40.7 °F 14.0 °F 29% 30.10 in 10.0 mi SSW 6.9 mph - N/A   Clear
10:35 AM 44.6 °F 39.7 °F 14.0 °F 29% 30.09 in 10.0 mi WSW 9.2 mph - N/A   Clear
10:55 AM 44.6 °F 40.2 °F 14.0 °F 29% 30.10 in 10.0 mi SSW 8.1 mph - N/A   Clear
11:15 AM 48.2 °F - 14.0 °F 25% 30.09 in 10.0 mi West 8.1 mph - N/A   Clear
11:35 AM 48.2 °F - 14.0 °F 25% 30.07 in 10.0 mi SSW 5.8 mph - N/A   Clear
11:55 AM 48.2 °F - 14.0 °F 25% 30.07 in 10.0 mi West 4.6 mph - N/A   Clear
12:15 PM 50.0 °F - 14.0 °F 24% 30.06 in 10.0 mi SSW 8.1 mph - N/A   Clear
12:35 PM 50.0 °F - 14.0 °F 24% 30.05 in 10.0 mi WSW 5.8 mph - N/A   Clear
12:55 PM 50.0 °F - 14.0 °F 24% 30.04 in 10.0 mi WSW 4.6 mph - N/A   Clear
1:15 PM 51.8 °F - 14.0 °F 22% 30.03 in 10.0 mi SW 5.8 mph - N/A   Clear
1:35 PM 51.8 °F - 12.2 °F 21% 30.02 in 10.0 mi SW 11.5 mph 16.1 mph N/A   Clear
1:55 PM 53.6 °F - 12.2 °F 19% 30.01 in 10.0 mi West 5.8 mph 17.3 mph N/A   Clear
2:35 PM 53.6 °F - 14.0 °F 21% 30.00 in 10.0 mi SW 4.6 mph - N/A   Clear
3:15 PM 55.4 °F - 12.2 °F 18% 29.97 in 10.0 mi SW 8.1 mph - N/A   Clear
3:55 PM 55.4 °F - 14.0 °F 20% 29.96 in 10.0 mi SW 4.6 mph - N/A   Clear
4:15 PM 55.4 °F - 14.0 °F 20% 29.96 in 10.0 mi WSW 5.8 mph - N/A   Clear
4:35 PM 55.4 °F - 15.8 °F 21% 29.95 in 10.0 mi SW 4.6 mph - N/A   Clear
4:55 PM 55.4 °F - 17.6 °F 23% 29.94 in 10.0 mi SSW 4.6 mph - N/A   Scattered Clouds
5:15 PM 55.4 °F - 17.6 °F 23% 29.93 in 10.0 mi SSW 8.1 mph - N/A   Overcast
5:35 PM 53.6 °F - 19.4 °F 26% 29.92 in 10.0 mi South 6.9 mph - N/A   Overcast
5:55 PM 53.6 °F - 23.0 °F 30% 29.91 in 10.0 mi SSW 6.9 mph - N/A   Overcast
6:15 PM 53.6 °F - 23.0 °F 30% 29.91 in 10.0 mi SSW 9.2 mph 16.1 mph N/A   Mostly Cloudy
6:35 PM 53.6 °F - 23.0 °F 30% 29.92 in 10.0 mi SSW 8.1 mph - N/A   Mostly Cloudy
6:55 PM 51.8 °F - 23.0 °F 33% 29.92 in 10.0 mi SSW 10.4 mph - N/A   Overcast
7:15 PM 51.8 °F - 24.8 °F 35% 29.91 in 10.0 mi SW 10.4 mph - N/A   Overcast
7:35 PM 51.8 °F - 26.6 °F 38% 29.91 in 10.0 mi South 6.9 mph - N/A   Overcast
7:55 PM 51.8 °F - 28.4 °F 41% 29.90 in 10.0 mi South 5.8 mph - N/A   Overcast
8:15 PM 50.0 °F - 26.6 °F 40% 29.88 in 10.0 mi South 6.9 mph - N/A   Overcast
8:35 PM 50.0 °F - 26.6 °F 40% 29.88 in 10.0 mi South 6.9 mph - N/A   Overcast
8:55 PM 50.0 °F - 26.6 °F 40% 29.86 in 10.0 mi SSE 6.9 mph - N/A   Overcast
9:15 PM 50.0 °F - 26.6 °F 40% 29.86 in 10.0 mi SSE 8.1 mph - N/A   Overcast
9:35 PM 50.0 °F - 28.4 °F 43% 29.84 in 10.0 mi South 6.9 mph - N/A Rain Light Rain
9:55 PM 50.0 °F - 28.4 °F 43% 29.84 in 10.0 mi SSE 8.1 mph - N/A   Overcast
10:15 PM 50.0 °F - 28.4 °F 43% 29.84 in 10.0 mi SSE 9.2 mph 17.3 mph N/A   Overcast
10:35 PM 50.0 °F - 28.4 °F 43% 29.84 in 10.0 mi South 5.8 mph - N/A   Overcast
10:55 PM 50.0 °F - 28.4 °F 43% 29.83 in 10.0 mi South 9.2 mph - N/A   Overcast
11:15 PM 50.0 °F - 28.4 °F 43% 29.82 in 10.0 mi South 10.4 mph 16.1 mph N/A   Overcast
11:35 PM 50.0 °F - 30.2 °F 47% 29.80 in 10.0 mi South 9.2 mph - N/A   Overcast
11:55 PM 48.2 °F - 30.2 °F 50% 29.79 in 10.0 mi South 13.8 mph - N/A   Overcast